Flag for France Weather past 2 weeks in Orléans, France

Now
54 °F

Broken clouds.


Feels Like: 50 °F
Forecast: 42 / 59 °F
Wind: 12 mph from Northwest

Location: Orleans Airport

Current Time: Apr 28, 2015 at 12:23:30 PM

Latest Report: Apr 28, 2015 at 12:00 PM


Visibility: N/A

Pressure: 30.15 "Hg

Humidity: 58%

Dew point: 39 °F

Location of OrléansLocation

Historic Weather in Orléans — Graph

°F

Orléans temperature yesterday

Maximum temperature yesterday: 57 °F (at 3:30 PM)
Minimum temperature yesterday: 45 °F (at 11:00 PM)
Average temperature yesterday: 52 °F

Past Weeks' High & Low Weather Summary

 TemperatureHumidityPressure
High81 °F (Apr 15, 4:30 PM)100% (Apr 24, 7:30 AM)30.51 "Hg (Apr 24, 7:30 AM)
Low34 °F (Apr 28, 4:00 AM)24% (Apr 14, 6:00 PM)29.62 "Hg (Apr 26, 5:00 PM)
Average56 °F67%30.04 "Hg
* Reported Apr 13 11:00 AM — Apr 28 11:00 AM, Orléans, Weather by CustomWeather, © 2015

Note: Actual official high and low records may vary slightly from our data, if they occured in-between our weather recording intervals... More about our weather records

Advertising

Orléans weather history for previous 24 hours

 ConditionsComfort  
Time TempWeatherWind HumidityBarometerVisibility
11:00 AM
Tue, Apr 28
52 °FScattered clouds.12 mph62%30.12 "HgN/A
10:30 AM50 °FPassing clouds.13 mph67%30.12 "HgN/A
10:00 AM48 °FClear.12 mph71%30.12 "HgN/A
9:30 AM46 °FClear.8 mph76%30.12 "HgN/A
9:00 AM45 °FClear.10 mph81%30.09 "HgN/A
8:30 AM41 °FClear.9 mph87%30.09 "HgN/A
8:00 AM39 °FClear.8 mph87%30.07 "HgN/A
7:30 AM37 °FClear.9 mph87%30.07 "HgN/A
7:00 AM36 °FClear.9 mph87%30.07 "HgN/A
6:30 AM34 °FClear.8 mph93%30.04 "HgN/A
6:00 AM36 °FClear.8 mph87%30.04 "HgN/A
5:30 AM34 °FClear.6 mph93%30.04 "HgN/A
5:00 AM34 °FClear.6 mph93%30.01 "HgN/A
4:30 AM34 °FClear.5 mph93%30.01 "HgN/A
4:00 AM34 °FClear.5 mph87%30.01 "HgN/A
3:30 AM36 °FClear.6 mph87%30.01 "HgN/A
3:00 AM37 °FClear.6 mph87%30.01 "HgN/A
2:30 AM37 °FClear.6 mph87%29.98 "HgN/A
2:00 AM37 °FClear.8 mph81%29.98 "HgN/A
1:30 AM37 °FClear.7 mph87%29.98 "HgN/A
1:00 AM39 °FClear.7 mph81%29.98 "HgN/A
12:30 AM41 °FClear.8 mph76%29.95 "HgN/A
12:00 AM43 °FClear.8 mph71%29.95 "HgN/A
11:30 PM
Mon, Apr 27
45 °FClear.7 mph66%29.95 "HgN/A
11:00 PM45 °FClear.13 mph66%29.92 "HgN/A
10:30 PM46 °FClear.14 mph62%29.92 "HgN/A
10:00 PM48 °FClear.13 mph58%29.92 "HgN/A
9:30 PM50 °FClear.15 mph54%29.89 "HgN/A
9:00 PM52 °FClear.12 mph62%29.86 "HgN/A
8:30 PM50 °FClear.10 mph67%29.86 "HgN/A
8:00 PM52 °FClear.10 mph58%29.83 "HgN/A
7:30 PM54 °FClear.13 mph54%29.83 "HgN/A
7:00 PM54 °FClear.13 mph54%29.83 "HgN/A
6:30 PM57 °FClear.16 mph48%29.80 "HgN/A
6:00 PM55 °FClear.16 mph51%29.80 "HgN/A
5:30 PM57 °FBroken clouds.17 mph48%29.80 "HgN/A
5:00 PM57 °FScattered clouds.18 mph48%29.80 "HgN/A
4:30 PM57 °FPassing clouds.20 mph44%29.77 "HgN/A
4:00 PM57 °FClear.18 mph51%29.77 "HgN/A
3:30 PM57 °FClear.20 mph48%29.77 "HgN/A
3:00 PM55 °FClear.17 mph51%29.77 "HgN/A
2:30 PM55 °FClear.17 mph59%29.77 "HgN/A
2:00 PM55 °FClear.17 mph63%29.77 "HgN/A
1:30 PM54 °FPassing clouds.20 mph67%29.74 "HgN/A
1:00 PM54 °FScattered clouds.21 mph67%29.74 "HgN/A
12:30 PM52 °FBroken clouds.18 mph77%29.74 "HgN/A
12:00 PM50 °FMostly cloudy.18 mph76%29.74 "HgN/A
Weather by CustomWeather, © 2015

See weather overviewHow to use our weather pages